N12KBM -KSAN

Flight info

Callsign N12KBM
Flight time N/A
Altitude VFR
Route
Aircraft P28B/L-VGD/C

Departure

Time N/A
Airport -

Arrival

Time 2026-05-05 23:02
Airport San Diego International Airport (KSAN)
Time Latitude Longitude Altitude Speed Heading
2026-05-05 23:02 32.73446 -117.18594 18 ft 0 kts 15°
2026-05-05 23:05 32.73449 -117.18591 18 ft 1 kts 87°
2026-05-05 23:05 32.73429 -117.18574 19 ft 13 kts 151°
2026-05-05 23:06 32.73422 -117.18569 19 ft 0 kts 151°
2026-05-05 23:06 32.73400 -117.18561 20 ft 5 kts 182°
2026-05-05 23:07 32.73359 -117.18494 21 ft 14 kts 110°
2026-05-05 23:07 32.73356 -117.18485 21 ft 0 kts 109°
2026-05-05 23:07 32.73356 -117.18482 21 ft 4 kts 109°
2026-05-05 23:07 32.73318 -117.18432 21 ft 1 kts 164°
2026-05-05 23:08 32.73316 -117.18432 21 ft 5 kts 167°
2026-05-05 23:08 32.73246 -117.18468 21 ft 11 kts 269°
2026-05-05 23:08 32.73322 -117.18804 19 ft 73 kts 285°
2026-05-05 23:08 32.73491 -117.19473 178 ft 94 kts 288°
2026-05-05 23:09 32.73711 -117.20213 511 ft 90 kts 290°
2026-05-05 23:09 32.74138 -117.20600 776 ft 92 kts
2026-05-05 23:09 32.74590 -117.20115 959 ft 90 kts 55°
2026-05-05 23:09 32.74633 -117.19353 922 ft 114 kts 96°
2026-05-05 23:10 32.74468 -117.18419 999 ft 114 kts 102°
2026-05-05 23:10 32.74288 -117.17466 948 ft 124 kts 104°
2026-05-05 23:10 32.74049 -117.16470 891 ft 126 kts 110°
2026-05-05 23:10 32.73724 -117.15558 1012 ft 117 kts 115°
2026-05-05 23:11 32.73060 -117.15100 988 ft 124 kts 196°
2026-05-05 23:11 32.72627 -117.15936 720 ft 115 kts 262°
2026-05-05 23:11 32.72808 -117.16738 381 ft 94 kts 294°
2026-05-05 23:11 32.72991 -117.17481 145 ft 91 kts 284°
2026-05-05 23:12 32.73160 -117.18166 42 ft 81 kts 287°
2026-05-05 23:12 32.73297 -117.18721 32 ft 71 kts 285°
2026-05-05 23:12 32.73452 -117.19353 273 ft 84 kts 286°
2026-05-05 23:12 32.73627 -117.20049 547 ft 90 kts 285°
2026-05-05 23:13 32.73900 -117.20785 753 ft 95 kts 333°
2026-05-05 23:13 32.74622 -117.20899 829 ft 114 kts
2026-05-05 23:13 32.74957 -117.20111 926 ft 124 kts 97°
2026-05-05 23:13 32.74740 -117.19085 1068 ft 120 kts 108°
2026-05-05 23:14 32.74463 -117.18084 993 ft 134 kts 110°
2026-05-05 23:14 32.74135 -117.17034 986 ft 135 kts 113°
2026-05-05 23:14 32.73745 -117.16001 899 ft 143 kts 117°
2026-05-05 23:14 32.73070 -117.15200 856 ft 137 kts 173°
2026-05-05 23:15 32.72639 -117.15960 555 ft 127 kts 279°
2026-05-05 23:15 32.72856 -117.16876 361 ft 108 kts 285°
2026-05-05 23:15 32.73047 -117.17709 92 ft 106 kts 285°
2026-05-05 23:15 32.73237 -117.18475 29 ft 82 kts 285°
2026-05-05 23:16 32.73376 -117.19044 60 ft 76 kts 284°
2026-05-05 23:16 32.73507 -117.19694 319 ft 88 kts 280°
2026-05-05 23:16 32.73706 -117.20453 537 ft 102 kts 304°
2026-05-05 23:16 32.74385 -117.20621 625 ft 127 kts 26°
2026-05-05 23:17 32.74625 -117.19651 769 ft 133 kts 95°
2026-05-05 23:17 32.74486 -117.18516 836 ft 144 kts 100°
2026-05-05 23:17 32.74305 -117.17356 1038 ft 142 kts 101°
2026-05-05 23:17 32.74101 -117.16191 1149 ft 144 kts 104°
2026-05-05 23:18 32.73783 -117.15059 1220 ft 147 kts 114°
2026-05-05 23:18 32.72973 -117.14502 1275 ft 145 kts 189°
2026-05-05 23:18 32.72549 -117.15349 946 ft 122 kts 261°
2026-05-05 23:18 32.72700 -117.16292 587 ft 115 kts 290°
2026-05-05 23:19 32.72926 -117.17159 247 ft 107 kts 285°
2026-05-05 23:19 32.73093 -117.17901 47 ft 79 kts 285°
2026-05-05 23:19 32.73236 -117.18483 24 ft 66 kts 287°
2026-05-05 23:19 32.73365 -117.19021 144 ft 76 kts 284°
2026-05-05 23:20 32.73534 -117.19673 369 ft 89 kts 288°
2026-05-05 23:20 32.73733 -117.20393 627 ft 96 kts 287°
2026-05-05 23:20 32.74180 -117.21026 726 ft 119 kts 355°
2026-05-05 23:20 32.74678 -117.20231 528 ft 147 kts 94°
2026-05-05 23:21 32.74564 -117.19028 640 ft 142 kts 97°
2026-05-05 23:21 32.74482 -117.17912 775 ft 128 kts 85°
2026-05-05 23:21 32.74405 -117.16859 839 ft 126 kts 101°
2026-05-05 23:21 32.74266 -117.15862 1003 ft 117 kts 102°
2026-05-05 23:22 32.73648 -117.15474 1073 ft 115 kts 175°
2026-05-05 23:22 32.72869 -117.15569 905 ft 107 kts 208°
2026-05-05 23:22 32.72640 -117.16291 609 ft 106 kts 285°
2026-05-05 23:22 32.72920 -117.17106 307 ft 108 kts 289°
2026-05-05 23:23 32.73095 -117.17905 100 ft 88 kts 285°
2026-05-05 23:23 32.73253 -117.18540 28 ft 72 kts 285°
2026-05-05 23:23 32.73368 -117.18993 20 ft 44 kts 287°
2026-05-05 23:23 32.73422 -117.19089 18 ft 4 kts
2026-05-05 23:24 32.73483 -117.19014 16 ft 14 kts 97°
2026-05-05 23:24 32.73529 -117.18893 16 ft 14 kts 15°